Miscellaneous Local Product
Issued by NWS Hastings, NE

Home | Current Version | Previous Version | Text Only | Print | Product List | Glossary On
Versions: 1 2 3 4 5 6 7 8 9 10 11 12 13 14 15 16 17 18 19 20 21 22 23 24 25 26 27 28 29 30 31 32 33 34 35 36 37 38 39 40 41 42 43 44 45 46 47 48 49 50
655
AXUS43 KGID 281402
MISGRI

GID CWA HOURLY WEATHER ROUNDUP
NATIONAL WEATHER SERVICE HASTINGS NE
900 AM CDT SAT MAY 28 2016

NOTE: "FAIR" INDICATES FEW OR NO CLOUDS BELOW 12,000 FEET WITH NO
SIGNIFICANT WEATHER AND/OR OBSTRUCTIONS TO VISIBILITY.

...SOUTH CENTRAL NEBRASKA...

CITY           SKY/WX    TMP DP  RH WIND       PRES   REMARKS
GRAND ISLAND   CLOUDY    59  56  89 W12       29.82R
HASTINGS       CLOUDY    59  55  87 NW8       29.83R
KEARNEY        CLOUDY    57  54  88 W10       29.85R
ORD            CLOUDY    58  55  90 NW6       29.80R
YORK           CLOUDY    61  57  88 NW13      29.81R
AURORA         LGT RAIN  59  57  95 NW12      29.81R
LEXINGTON      MOSUNNY   60  55  85 W15       29.87R
HOLDREGE       CLOUDY    57  54  89 W5        29.86R
HEBRON         CLOUDY    59  58  97 NW10      29.83R

...NEBRASKA PANHANDLE...

CITY           SKY/WX    TMP DP  RH WIND       PRES   REMARKS
CHADRON        SUNNY     53  47  79 W6        29.92R
ALLIANCE       SUNNY     52  46  80 W7        29.93R
SCOTTSBLUFF    SUNNY     52  44  74 NW9       29.95R
SIDNEY         SUNNY     53  46  77 W9        29.97R

...WESTERN AND NORTH CENTRAL NEBRASKA...

CITY           SKY/WX    TMP DP  RH WIND       PRES   REMARKS
VALENTINE      CLOUDY    56  51  84 NW8       29.87R
AINSWORTH      RAIN      57  53  86 NW12      29.85S
ONEILL         LGT RAIN  58  56  95 NW9       29.80R
BROKEN BOW     CLOUDY    58  53  84 NW13      29.84S
IMPERIAL       SUNNY     57  50  77 NW7       29.93R
NORTH PLATTE   SUNNY     56  51  84 W10       29.90R
MCCOOK         SUNNY     58  54  86 W12       29.90R

...EASTERN NEBRASKA...

CITY           SKY/WX    TMP DP  RH WIND       PRES   REMARKS
NORFOLK        CLOUDY    58  56  93 W13       29.73R
SO SIOUX CITY  PTSUNNY   65  59  81 S8        29.74S
TEKAMAH        CLOUDY    63  58  83 S13       29.76R
COLUMBUS       CLOUDY    61  52  72 W10       29.79R
ALBION         LGT RAIN  57  55  93 W9        29.78R
OMAHA EPPLEY   PTSUNNY   64  58  80 S9        29.77R
OFFUTT AFB     CLOUDY    62  58  86 S6        29.77R
MILLARD        CLOUDY    63  58  83 SW3       29.77R
LINCOLN        CLOUDY    62  56  80 W6        29.80R
NEBRASKA CITY  CLOUDY    62  61  95 W7        29.79R
BEATRICE       CLOUDY    60  58  94 W5        29.80R
FALLS CITY     CLOUDY    62  59  90 W6        29.78R

...NORTHERN KANSAS...

CITY           SKY/WX    TMP DP  RH WIND       PRES   REMARKS
GOODLAND       SUNNY     56  49  77 NW9       29.96R
HILL CITY      SUNNY     61  54  77 NW9       29.91R
NORTON         SUNNY     57  52  82 NW10      29.88R
PHILLIPSBURG   SUNNY     61  57  88 NW8       29.88R
SMITH CENTER   SUNNY     57  57 100 NW7       29.88R
BELOIT         CLOUDY    61  57  88 CALM      29.86R
HAYS           SUNNY     57  48  72 W12       29.89R
RUSSELL        MOSUNNY   59  55  87 W9        29.87R
CONCORDIA      CLOUDY    61  56  83 W7        29.84R
SALINA         MOSUNNY   63  59  87 W9        29.87R
TOPEKA         CLOUDY    65  59  81 S12       29.80R



USA.gov is the U.S. government's official web portal to all federal, state and local government web resources and services.